Hourly Weather Seni

Today, 29 November, Sunday

Time Temperature Precipitation Wind Pressure Humidity
00:00 +6°C° 0.1 mm 1 mps 756 mmHg 83%
01:00 +6°C° 0.1 mm 1 mps 756 mmHg 83%
02:00 +6°C° 0.1 mm 1 mps 756 mmHg 83%
03:00 +6°C° 0 mm 1 mps 756 mmHg 83%
04:00 +6°C° 0 mm 1 mps 756 mmHg 84%
05:00 +6°C° 0 mm 1 mps 756 mmHg 84%
06:00 +6°C° 0 mm 1 mps 756 mmHg 85%
07:00 +6°C° 0 mm 1 mps 756 mmHg 86%
08:00 +6°C° 0 mm 1 mps 757 mmHg 87%
09:00 +6°C° 0 mm 1 mps 757 mmHg 84%
10:00 +6°C° 0 mm 1 mps 757 mmHg 81%
11:00 +7°C° 0 mm 1 mps 757 mmHg 79%
12:00 +7°C° 0.1 mm 1 mps 758 mmHg 78%
13:00 +7°C° 0.1 mm 1 mps 758 mmHg 77%
14:00 +7°C° 0.1 mm 1 mps 758 mmHg 76%
15:00 +7°C° 0 mm 1 mps 758 mmHg 79%
16:00 +6°C° 0 mm 1 mps 758 mmHg 83%
17:00 +5°C° 0 mm 1 mps 758 mmHg 87%
18:00 +5°C° 0 mm 1 mps 758 mmHg 87%
19:00 +5°C° 0 mm 1 mps 758 mmHg 87%
20:00 +5°C° 0 mm 1 mps 759 mmHg 87%
21:00 +5°C° 0.1 mm 2 mps 759 mmHg 87%
22:00 +5°C° 0.1 mm 2 mps 759 mmHg 87%
23:00 +5°C° 0.1 mm 2 mps 758 mmHg 88%

Tomorrow, 30 November, Monday

Time Temperature Precipitation Wind Pressure Humidity
00:00 +5°C° 0.2 mm 2 mps 759 mmHg 88%
01:00 +4°C° 0.2 mm 3 mps 759 mmHg 89%
02:00 +4°C° 0.2 mm 3 mps 759 mmHg 90%
03:00 +5°C° 0.1 mm 2 mps 759 mmHg 91%
04:00 +5°C° 0.1 mm 2 mps 758 mmHg 91%
05:00 +5°C° 0.1 mm 2 mps 758 mmHg 92%
06:00 +4°C° 0.5 mm 3 mps 759 mmHg 92%
07:00 +4°C° 0.5 mm 3 mps 759 mmHg 92%
08:00 +4°C° 0.5 mm 3 mps 759 mmHg 92%
09:00 +4°C° 0.3 mm 3 mps 759 mmHg 90%
10:00 +4°C° 0.3 mm 4 mps 759 mmHg 88%
11:00 +4°C° 0.3 mm 4 mps 759 mmHg 86%
12:00 +4°C° 0.3 mm 4 mps 759 mmHg 85%
13:00 +5°C° 0.3 mm 3 mps 759 mmHg 85%
14:00 +5°C° 0.3 mm 3 mps 760 mmHg 84%
15:00 +5°C° 0.2 mm 3 mps 760 mmHg 85%
16:00 +4°C° 0.2 mm 3 mps 760 mmHg 85%
17:00 +4°C° 0.2 mm 3 mps 760 mmHg 86%
18:00 +4°C° 0.1 mm 3 mps 760 mmHg 85%
19:00 +4°C° 0.1 mm 3 mps 760 mmHg 84%
20:00 +4°C° 0.1 mm 3 mps 760 mmHg 83%
21:00 +4°C° 0 mm 3 mps 760 mmHg 83%
22:00 +4°C° 0 mm 3 mps 760 mmHg 83%
23:00 +3°C° 0 mm 3 mps 760 mmHg 83%

Day after tomorrow, 1 December, Tuesday

Time Temperature Precipitation Wind Pressure Humidity
00:00 +4°C° 0 mm 2 mps 760 mmHg 84%
01:00 +4°C° 0 mm 2 mps 760 mmHg 85%
02:00 +3°C° 0 mm 2 mps 761 mmHg 86%
03:00 +4°C° 0 mm 2 mps 761 mmHg 84%
04:00 +4°C° 0 mm 2 mps 761 mmHg 83%
05:00 +4°C° 0 mm 2 mps 761 mmHg 82%
06:00 +3°C° 0 mm 3 mps 761 mmHg 81%
07:00 +3°C° 0 mm 3 mps 761 mmHg 79%
08:00 +3°C° 0 mm 3 mps 761 mmHg 78%
09:00 +3°C° 0 mm 3 mps 761 mmHg 76%
10:00 +3°C° 0 mm 4 mps 761 mmHg 74%
11:00 +3°C° 0 mm 4 mps 761 mmHg 73%
12:00 +3°C° 0 mm 4 mps 761 mmHg 72%
13:00 +3°C° 0 mm 4 mps 761 mmHg 71%
14:00 +3°C° 0 mm 4 mps 761 mmHg 70%
15:00 +1°C° 0 mm 4 mps 761 mmHg 72%
16:00 +1°C° 0 mm 4 mps 761 mmHg 75%
17:00 0°C° 0 mm 4 mps 761 mmHg 77%
18:00 0°C° 0 mm 4 mps 762 mmHg 77%
19:00 0°C° 0 mm 4 mps 762 mmHg 77%
20:00 0°C° 0 mm 4 mps 762 mmHg 77%
21:00 -1°C° 0 mm 4 mps 762 mmHg 78%
22:00 -1°C° 0 mm 4 mps 762 mmHg 78%
23:00 -1°C° 0 mm 4 mps 762 mmHg 79%

2 December, Wednesday

Time Temperature Precipitation Wind Pressure Humidity
00:00 -1°C° 0 mm 4 mps 762 mmHg 79%
01:00 -2°C° 0 mm 4 mps 762 mmHg 80%
02:00 -2°C° 0 mm 5 mps 762 mmHg 80%
03:00 -2°C° 0 mm 4 mps 762 mmHg 84%
04:00 -2°C° 0 mm 4 mps 762 mmHg 87%
05:00 -2°C° 0 mm 4 mps 762 mmHg 90%
06:00 -2°C° 0.1 mm 5 mps 762 mmHg 91%
07:00 -2°C° 0.1 mm 5 mps 762 mmHg 91%
08:00 -2°C° 0.1 mm 5 mps 762 mmHg 91%
09:00 -2°C° 0.1 mm 5 mps 763 mmHg 89%
10:00 -2°C° 0.1 mm 5 mps 763 mmHg 87%
11:00 -1°C° 0.1 mm 5 mps 763 mmHg 85%
12:00 -1°C° 0 mm 5 mps 763 mmHg 83%
13:00 -1°C° 0 mm 4 mps 762 mmHg 80%
14:00 -1°C° 0 mm 4 mps 762 mmHg 78%
15:00 -1°C° 0 mm 4 mps 762 mmHg 78%
16:00 -1°C° 0 mm 4 mps 762 mmHg 79%
17:00 -1°C° 0 mm 4 mps 762 mmHg 80%
18:00 -1°C° 0 mm 4 mps 762 mmHg 80%
19:00 -1°C° 0 mm 4 mps 762 mmHg 80%
20:00 -1°C° 0 mm 4 mps 762 mmHg 80%
21:00 -1°C° 0 mm 4 mps 762 mmHg 81%
22:00 -1°C° 0 mm 4 mps 762 mmHg 82%
23:00 -1°C° 0 mm 4 mps 762 mmHg 83%

3 December, Thursday

Time Temperature Precipitation Wind Pressure Humidity
00:00 -1°C° 0.1 mm 4 mps 762 mmHg 86%
01:00 -1°C° 0.1 mm 4 mps 762 mmHg 90%
02:00 -2°C° 0.1 mm 4 mps 762 mmHg 94%
03:00 -2°C° 0.3 mm 4 mps 762 mmHg 94%
04:00 -2°C° 0.3 mm 4 mps 762 mmHg 95%
05:00 -2°C° 0.3 mm 4 mps 762 mmHg 96%
06:00 -2°C° 0.3 mm 4 mps 762 mmHg 96%
07:00 -2°C° 0.3 mm 4 mps 762 mmHg 96%
08:00 -2°C° 0.3 mm 4 mps 762 mmHg 96%
09:00 -2°C° 0.3 mm 4 mps 762 mmHg 96%
10:00 -2°C° 0.3 mm 4 mps 762 mmHg 96%
11:00 -1°C° 0.3 mm 4 mps 762 mmHg 97%
12:00 -1°C° 0.1 mm 4 mps 762 mmHg 97%
13:00 -1°C° 0.1 mm 4 mps 762 mmHg 97%
14:00 -1°C° 0.1 mm 4 mps 762 mmHg 97%
15:00 -1°C° 0.1 mm 4 mps 762 mmHg 97%
16:00 -1°C° 0.1 mm 4 mps 762 mmHg 97%
17:00 -1°C° 0.1 mm 4 mps 762 mmHg 96%
18:00 -1°C° 0.1 mm 4 mps 762 mmHg 96%
19:00 -1°C° 0.1 mm 4 mps 762 mmHg 95%
20:00 -1°C° 0.1 mm 4 mps 762 mmHg 95%
21:00 -1°C° 0 mm 4 mps 762 mmHg 95%
22:00 -1°C° 0 mm 4 mps 762 mmHg 95%
23:00 -1°C° 0 mm 4 mps 762 mmHg 94%

4 December, Friday

Time Temperature Precipitation Wind Pressure Humidity
00:00 -1°C° 0 mm 4 mps 762 mmHg 94%
01:00 -1°C° 0 mm 3 mps 762 mmHg 94%
02:00 -1°C° 0 mm 3 mps 762 mmHg 93%
03:00 -1°C° 0 mm 3 mps 762 mmHg 93%
04:00 -1°C° 0 mm 3 mps 762 mmHg 93%
05:00 -1°C° 0 mm 3 mps 762 mmHg 93%
06:00 -2°C° 0 mm 4 mps 762 mmHg 92%
07:00 -3°C° 0 mm 4 mps 762 mmHg 92%
08:00 -3°C° 0 mm 4 mps 762 mmHg 91%
09:00 -3°C° 0 mm 4 mps 761 mmHg 90%
10:00 -2°C° 0 mm 4 mps 761 mmHg 88%
11:00 -2°C° 0 mm 4 mps 761 mmHg 87%
12:00 -2°C° 0 mm 4 mps 761 mmHg 85%
13:00 -2°C° 0 mm 4 mps 761 mmHg 84%
14:00 -2°C° 0 mm 5 mps 761 mmHg 82%
15:00 -2°C° 0 mm 5 mps 760 mmHg 81%
16:00 -2°C° 0 mm 5 mps 760 mmHg 80%
17:00 -2°C° 0 mm 5 mps 760 mmHg 80%
18:00 -2°C° 0 mm 5 mps 760 mmHg 79%
19:00 -2°C° 0 mm 5 mps 760 mmHg 78%
20:00 -2°C° 0 mm 5 mps 760 mmHg 77%
21:00 -2°C° 0 mm 5 mps 760 mmHg 78%
22:00 -4°C° 0 mm 5 mps 760 mmHg 80%
23:00 -4°C° 0 mm 5 mps 760 mmHg 82%
Show more